Regional Weather Roundup
Issued by NWS Upton, NY

Current Version | Previous Version | Text Only | Print | Product List | Glossary On
Versions: 1 2 3 4 5 6 7 8 9 10 11 12 13 14 15 16 17 18 19 20 21 22 23 24 25 26 27 28 29 30 31 32 33 34 35 36 37 38 39 40 41 42 43 44 45 46 47 48 49 50
000 ASUS41 KOKX 262118 RWROKX REGIONAL WEATHER ROUNDUP NATIONAL WEATHER SERVICE NEW YORK NY 500 PM EDT TUE MAY 26 2015 NOTE: "FAIR" INDICATES FEW OR NO CLOUDS BELOW 12,000 FEET WITH NO SIGNIFICANT WEATHER AND/OR OBSTRUCTIONS TO VISIBILITY. NYZ071-072-176-178-NJZ106-104-262200- NEW YORK CITY METRO AREA CITY SKY/WX TMP DP RH WIND PRES REMARKS CENTRAL PARK MOSUNNY 85 61 44 VRB6 30.17S LAGUARDIA APRT PTSUNNY 82 60 47 S14 30.14S KENNEDY INTL PTSUNNY 73 60 63 S21G32 30.17S NEWARK/LIBERTY PTSUNNY 89 58 34 SW12G18 30.13S BRNX BOT. GARD N/A 79 61 53 SE7 30.17R TETERBORO MOSUNNY 88 59 37 S13 30.12R $$ NYZ177-179-078>081-262200- LONG ISLAND NEW YORK CITY SKY/WX TMP DP RH WIND PRES REMARKS FARMINGDALE MOSUNNY 72 61 68 SW22G28 30.19S ISLIP PTSUNNY 71 60 68 SW17G26 30.18S SHIRLEY MOSUNNY 71 60 68 S16G23 30.20F WESTHAMPTON MOSUNNY 67 59 75 SW16G24 30.21F MONTAUK POINT N/A 67 58 72 SW12G22 30.21S $$ NYZ052-065-067-262200- HUDSON VALLEY CITY SKY/WX TMP DP RH WIND PRES REMARKS WHITE PLAINS PTSUNNY 81 62 52 S9G18 30.16R NEWBURGH PTSUNNY 82 70 65 VRB6 30.14F MONTGOMERY PTSUNNY 82 69 64 N7 30.13S POUGHKEEPSIE PTSUNNY 83 67 58 W3 30.11F ALBANY PTSUNNY 85 64 49 SW6 30.10R $$ NJZ001-105-106-008-010-013-015-019>022-104-262200- NEW JERSEY CITY SKY/WX TMP DP RH WIND PRES REMARKS NEWARK/LIBERTY PTSUNNY 89 58 34 SW12G18 30.13S TETERBORO MOSUNNY 88 59 37 S13 30.12R CALDWELL MOSUNNY 87 60 40 SW7 30.13S MORRISTOWN MOSUNNY 88 61 40 S17 30.14S SOMERVILLE PTSUNNY 86 62 44 S5 30.12S SUSSEX PTSUNNY 86 62 44 S8 30.15S ANDOVER N/A 84 63 49 S7 30.15S TRENTON MOSUNNY 88 60 38 SW12G23 30.14F MILLVILLE MOSUNNY 80 65 59 S10 30.18S ATLANTIC CITY MOSUNNY 79 62 56 S20 30.20S WRIGHTSTOWN SUNNY 87 62 44 SW13 30.13F TOMS RIVER SUNNY N/A N/A N/A S16 30.17S BELMAR MOSUNNY 82 64 54 S10G18 30.16F $$ PAZ047>061-062-071-262200- EASTERN PENNSYLVANIA CITY SKY/WX TMP DP RH WIND PRES REMARKS PHILADELPHIA PTSUNNY 87 61 41 SW15 30.15F ALLENTOWN PTSUNNY 88 60 38 SW7 30.13F SCRANTON PTSUNNY 83 65 54 SW8 30.14S $$ CTZ002-004>006-009-010-012-RIZ004-006-007-MAZ004-011-015-262200- SOUTHERN NEW ENGLAND IN CT CITY SKY/WX TMP DP RH WIND PRES REMARKS BRADLEY INTL PTSUNNY 87 63 44 S15G23 30.10S HARTFORD PTSUNNY 83 62 49 S18G24 30.12S DANBURY PTSUNNY 83 61 47 S12 30.16S WTRBRY/OXFORD PTSUNNY 79 63 57 S9 30.18F BRIDGEPORT PTSUNNY 76 62 62 S16 30.16S MERIDEN PTSUNNY 80 60 50 S17 30.15S NEW HAVEN PTSUNNY 73 61 65 S6 30.17S CHESTER FAIR 75 63 64 SW7G16 30.19S GROTON MOSUNNY 67 59 75 SW10 30.18S WILLIMANTIC MOSUNNY 82 61 48 S16 30.14S IN RI CITY SKY/WX TMP DP RH WIND PRES REMARKS PROVIDENCE PTSUNNY 82 58 43 SW21G26 30.15R BLOCK ISLAND MOSUNNY 63 55 77 SW18G25 30.21R WESTERLY MOSUNNY 69 59 70 S14G24 30.19S IN MA CITY SKY/WX TMP DP RH WIND PRES REMARKS BOSTON PTSUNNY 85 61 44 W16G24 30.09F WORCESTER PTSUNNY 82 61 48 SW12 30.15F WESTFIELD PTSUNNY 88 62 41 S12 30.10S PROVINCETOWN MOSUNNY 66 55 68 SW20G25 30.15S NANTUCKET MOSUNNY 63 57 81 SW16 30.21F $$ ANZ330-335-338-340-345-350-353-355-262200- COASTAL MARINE OBSERVATIONS STATION/POSITION TIME SKY/WX TEMP WIND PRES VSBY WAVE AIR SEA DIR/SP/G HT/PER (UTC) (F) (DEG/KT/KT) (MB) (MI) (FT/S) NY HARB ENTRANCE 2050 63 58 190/ 19/ 23 1021.0 4/ 5 4S FIRE IS 2003 56 N/A 4/ 5 20S FIRE ISLAND 2050 61 56 200/ 17/ 21 1022.2 4/ 5 GREAT SOUTH BAY 2030 63 66 270/ 12/ 19 N/A 23SW MTP 2050 59 53 210/ 19/ 21 1022.3 4/ 5 HUDSON CANYON NOT AVBL KINGS POINT 2000 76 59 190/ 12/ 14 1020.5 CENTRAL LI SOUND 2015 65 57 180/ 10/ 10 N/A EASTERN LI SOUND 2000 61 200/ 10/ 12 N/A ROBBINS REEF 2000 65 190/ 17/ 19 1019.6 $$ >>>>>>>>>>>>>>>>>>>>>>>>>>>> KEY <<<<<<<<<<<<<<<<<<<<<<<<<<< > < > SKY/WX - SKY CONDITION/PRESENT WEATHER < > TMP - TEMPERATURE IN FAHRENHEIT < > DP - DEWPOINT IN FAHRENHEIT < > RH - RELATIVE HUMIDITY IN PERCENT < > WIND - DIRECTION AND SPEED IN MPH < > PRES - MEAN SEA LEVEL PRESSURE IN INCHES OF HG < > WCI - WIND CHILL INDEX < > VSB - VISIBILITY IN MILES < > HX - HEAT INDEX < > TC - TEMPERATURE IN CELSIUS < > VRB - VARIABLE WIND DIRECTION < > < >>>>>>>>>>>>>>>>>>>>>>>>>>>> KEY <<<<<<<<<<<<<<<<<<<<<<<<<<<

USA.gov is the U.S. government's official web portal to all federal, state and local government web resources and services.